AO-07 1 07530U 74089B 24319.58167947 -.00000025 00000-0 13340-3 0 9991 2 07530 101.9894 315.6958 0012219 156.1148 323.7686 12.53682511287889 UO-11 1 14781U 84021B 24319.39018770 .00003981 00000-0 43916-3 0 9997 2 14781 97.7260 284.4309 0006520 311.0356 49.0296 14.88022856170817 AO-27 1 22825U 93061C 24319.14356552 .00000428 00000-0 18096-3 0 9999 2 22825 98.7693 13.3475 0008452 8.1514 351.9804 14.30655266624059 FO-29 1 24278U 96046B 24319.36167610 .00000044 00000-0 78800-4 0 9992 2 24278 98.5853 234.3471 0350396 159.1421 202.4428 13.53221555394747 NOAA-15 1 25338U 98030A 24319.60020358 .00000498 00000-0 22314-3 0 9990 2 25338 98.5565 343.5196 0009280 242.1801 117.8439 14.26795906378885 GO-32 1 25397U 98043D 24319.52065577 .00000339 00000-0 16714-3 0 9993 2 25397 98.9441 288.6511 0002382 85.8744 274.2707 14.24189521368817 ISS 1 25544U 98067A 24319.76599714 .00008415 00000-0 15631-3 0 9994 2 25544 51.6420 289.3704 0007822 217.7694 206.3129 15.49789762481901 NO-44 1 26931U 01043C 24319.43734112 .00000731 00000-0 30602-3 0 9998 2 26931 67.0504 303.3201 0007303 262.4579 97.5693 14.31497115207458 SO-50 1 27607U 02058C 24319.59121765 .00003229 00000-0 43763-3 0 9994 2 27607 64.5529 118.8392 0031391 34.4300 325.8829 14.80294180178570 CO-55 1 27844U 03031E 24319.58688600 .00001036 00000-0 47346-3 0 9999 2 27844 98.6786 324.5720 0010810 70.6301 289.6045 14.23639837109180 CO-57 1 27848U 03031J 24319.44194190 .00000904 00000-0 42048-3 0 9991 2 27848 98.6818 324.5829 0010749 85.8832 274.3575 14.23027268108905 RS-22 1 27939U 03042A 24319.59825748 .00003118 00000-0 51426-3 0 9990 2 27939 98.3066 118.4717 0010884 308.7015 140.0364 14.71174173130387 NOAA-18 1 28654U 05018A 24319.57707871 .00000532 00000-0 30644-3 0 9990 2 28654 98.8635 35.2213 0014044 1.0890 359.0310 14.13420519 4503 CO-58 1 28895U 05043F 24319.42516162 .00004044 00000-0 69202-3 0 9994 2 28895 98.2219 95.8108 0014357 241.2967 118.6796 14.69338996 16505 CO-65 1 32785U 08021C 24319.15359927 .00009426 00000-0 75573-3 0 9997 2 32785 97.7719 283.7155 0010681 185.9044 174.2055 15.00287119898008 AAUSAT2 1 32788U 08021F 24319.51957055 .00054216 00000-0 17004-2 0 9997 2 32788 97.6035 301.6622 0006454 52.6289 307.5540 15.32845307901216 CO-66 1 32791U 08021J 24319.38579730 .00016787 00000-0 10334-2 0 9996 2 32791 97.7077 290.4312 0006504 130.9672 229.2120 15.10059295899219 RS-30 1 32953U 08025A 24319.56982779 .00000061 00000-0 36674-3 0 9995 2 32953 82.5053 355.9516 0020483 135.2113 225.0625 12.43153136747812 PRISM 1 33493U 09002B 24319.11480076 .00056269 00000-0 16058-2 0 9999 2 33493 98.1828 21.0160 0008292 88.8917 271.3274 15.35811484861902 NOAA-19 1 33591U 09005A 24319.62118383 .00000458 00000-0 26865-3 0 9993 2 33591 99.0287 16.8843 0013170 225.2497 134.7604 14.13199573812875 SRMSAT 1 37841U 11058D 24319.38879019 .00000754 00000-0 26674-3 0 9996 2 37841 19.9734 328.2160 0011556 306.6491 188.5936 14.11283777675804 RS-40 1 38735U 12041C 24319.49861518 -.00000001 00000-0 -77787-4 0 9998 2 38735 82.4758 76.1556 0016767 249.5505 110.3774 12.42620351557847 ZACUBE-1 1 39417U 13066B 24319.41243849 .00010223 00000-0 97424-3 0 9991 2 39417 97.7530 272.4615 0048702 25.2241 335.1342 14.92652568593962 Delfi-N3xt 1 39428U 13066N 24319.21552477 .00014645 00000-0 16791-2 0 9990 2 39428 97.8353 233.9583 0092368 322.3406 37.1364 14.82921423588285 GOMX-1 1 39430U 13066Q 24319.59405264 .00004117 00000-0 66252-3 0 9996 2 39430 97.7068 184.8365 0137153 133.4509 227.8203 14.65899377585065 LO-74 1 39440U 13066AA 24319.40631880 .00006744 00000-0 73906-3 0 9994 2 39440 97.8276 260.2029 0067412 140.5857 220.0291 14.86404412590624 AO-73 1 39444U 13066AE 24319.37374379 .00014512 00000-0 12505-2 0 9990 2 39444 97.7386 276.0310 0044692 4.5411 355.6207 14.96645160592539 DTUSAT-2 1 40030U 14033W 24319.41945870 .00012116 00000-0 90728-3 0 9995 2 40030 98.0313 276.4126 0012405 48.7876 311.4415 15.02816516565227 EO-80 1 40032U 14033Y 24319.45048299 .00012335 00000-0 92301-3 0 9992 2 40032 98.0163 276.3757 0009341 352.5057 7.6025 15.02865176565208 XW-2C 1 40906U 15049H 24319.56240625 .00098116 00000-0 10553-2 0 9998 2 40906 97.4611 341.9946 0007445 107.7439 252.4632 15.63388166507773 XW-2D 1 40907U 15049J 24319.57577104 .03556063 25027-5 12550-2 0 9998 2 40907 97.4291 348.1082 0003311 228.1543 131.9466 16.25159939508242 LILACSAT-2 1 40908U 15049K 24319.55731974 .00015259 00000-0 50083-3 0 9991 2 40908 97.5205 329.8472 0011210 168.7577 191.3917 15.31629635506465 XW-2B 1 40911U 15049N 24319.56574830 .00933487 45551-3 14463-2 0 9998 2 40911 97.4427 347.6101 0002497 151.9944 208.1471 16.04281436508075 IO-86 1 40931U 15052B 24319.48411443 .00002079 00000-0 19166-3 0 9992 2 40931 6.0011 358.4542 0012341 51.4331 308.6901 14.78346323493730 ChubuSat-2 1 41338U 16012B 24318.89917581 .00010186 00000-0 57760-3 0 9999 2 41338 30.9980 145.1131 0010606 305.2080 54.7565 15.11662342480248 ChubuSat-3 1 41339U 16012C 24319.57610506 .00008186 00000-0 47559-3 0 9995 2 41339 31.0047 140.3850 0010776 314.1334 45.8418 15.10715378480312 Horyu-4 1 41340U 16012D 24319.55482497 .00025521 00000-0 10123-2 0 9999 2 41340 31.0008 70.7841 0009842 73.0211 287.1509 15.24149850481048 Lapan A3 1 41603U 16040E 24319.58526117 .00005814 00000-0 21957-3 0 9994 2 41603 97.1396 326.6725 0009679 291.3797 68.6409 15.27331374466163 Pratham 1 41783U 16059A 24319.57449196 .00002049 00000-0 38280-3 0 9997 2 41783 97.8308 331.8799 0030586 263.0723 96.7002 14.65649429434561 CAS-2T 1 41847U 16066G 24319.28396885 .00002479 00000-0 36231-3 0 9991 2 41847 98.4464 29.4516 0351163 85.0008 279.1164 14.42396952421123 CAS-4B 1 42759U 17034B 24319.60199554 .00038694 00000-0 98287-3 0 9997 2 42759 43.0133 90.8654 0014905 293.0138 66.9146 15.38874565410481 CAS-4A 1 42761U 17034D 24319.58796015 .00045756 00000-0 11492-2 0 9991 2 42761 43.0170 89.1426 0015401 301.7699 58.1656 15.39146649410490 D-SAT 1 42794U 17036AF 24319.51161289 .00014047 00000-0 88439-3 0 9996 2 42794 97.4923 296.3097 0102634 358.1177 1.9649 15.04939947403294 TechnoSat 1 42829U 17042E 24319.44822155 .00006510 00000-0 54104-3 0 9998 2 42829 97.3893 132.3837 0010203 292.9600 67.0547 14.99003970399661 AO-91 1 43017U 17073E 24319.59275161 .00014240 00000-0 79594-3 0 9996 2 43017 97.5488 190.0230 0196503 148.3224 213.0004 14.98568612378144 S-Net D 1 43186U 18014G 24319.61631453 .00009928 00000-0 65015-3 0 9992 2 43186 97.5762 218.9731 0008700 205.3221 154.7582 15.07900209371142 S-Net B 1 43187U 18014H 24319.61950095 .00009699 00000-0 63541-3 0 9996 2 43187 97.5764 218.9365 0009540 200.7012 159.3831 15.07886773371145 S-Net A 1 43188U 18014J 24319.61727915 .00009955 00000-0 65180-3 0 9996 2 43188 97.5774 219.0602 0009383 201.4691 158.6145 15.07903363371144 S-Net C 1 43189U 18014K 24319.28971276 .00008861 00000-0 58083-3 0 9990 2 43189 97.5784 218.7146 0011290 195.9847 164.1027 15.07879342369647 Ten-Koh 1 43677U 18084G 24319.40479691 .00006368 00000-0 54052-3 0 9999 2 43677 98.0803 117.7452 0011823 235.6772 124.3331 14.98230704329190 PO-101 1 43678U 18084H 24319.58137695 .00003467 00000-0 30959-3 0 9991 2 43678 98.0852 122.2766 0008020 252.4577 107.5768 14.96611843329405 QO-100 1 43700U 18090A 24319.01103424 .00000154 00000-0 00000-0 0 9996 2 43700 0.0146 281.5084 0001958 347.8688 174.0238 1.00271822 21856 MinXSS-2 1 43758U 18099A 24319.14792380 .00019033 00000-0 99595-3 0 9993 2 43758 97.5351 19.6578 0014815 158.1182 202.0686 15.15788998325443 AO-95 1 43770U 18099N 24319.14608315 .00013031 00000-0 78676-3 0 9990 2 43770 97.5265 14.0767 0011699 203.9680 156.1006 15.10781032325160 RANGE-B 1 43772U 18099Q 24318.90742329 .00027594 00000-0 13601-2 0 9994 2 43772 97.5057 18.1023 0005174 106.9882 253.1919 15.17895720325368 RANGE-A 1 43773U 18099R 24319.56294223 .00009327 00000-0 65136-3 0 9998 2 43773 97.4820 8.0780 0012261 176.4690 183.6625 15.05495847325036 MOVE-II 1 43780U 18099Y 24319.12137084 .00046396 00000-0 15970-2 0 9996 2 43780 97.5012 21.7797 0004872 167.8378 192.2981 15.29893490325723 SNUSat 2 1 43782U 18099AA 24319.14076678 .00011096 00000-0 70031-3 0 9990 2 43782 97.4950 12.3501 0014284 144.5039 215.7143 15.09171805325153 SnugLite 1 43784U 18099AC 24319.15043959 .00013410 00000-0 80467-3 0 9995 2 43784 97.4767 11.6630 0004708 140.6471 219.5102 15.11044603325248 ITASat 1 1 43786U 18099AE 24319.56135031 .00011253 00000-0 72900-3 0 9991 2 43786 97.4915 12.7736 0015498 194.7846 165.2931 15.08193897325207 EAGLET 1 1 43790U 18099AJ 24319.12806049 .00006672 00000-0 46416-3 0 9994 2 43790 97.5098 12.7814 0013081 173.8005 186.3386 15.05739689324819 ESEO 1 43792U 18099AL 24319.60354979 .00004034 00000-0 31927-3 0 9990 2 43792 97.4893 8.9875 0008926 131.8266 228.3722 15.01117735324754 CSIM 1 43793U 18099AM 24319.15290312 .00045971 00000-0 16091-2 0 9990 2 43793 97.5147 23.6358 0009394 147.3220 212.8603 15.29318873325573 JO-97 1 43803U 18099AX 24319.61712599 .00016731 00000-0 94621-3 0 9997 2 43803 97.5011 15.2954 0009490 139.4001 220.7940 15.13105649325390 Suomi 100 1 43804U 18099AY 24319.57030831 .00015495 00000-0 90956-3 0 9998 2 43804 97.5081 14.9593 0014794 142.1209 218.1065 15.11725776325359 ISAT 1 43879U 18111D 24319.21744934 .00022057 00000-0 10829-2 0 9994 2 43879 97.6063 224.7484 0010263 188.7295 171.3761 15.18048388322118 UWE-4 1 43880U 18111E 24319.26733518 .00018471 00000-0 95687-3 0 9998 2 43880 97.5996 224.3691 0013109 203.3998 156.6639 15.16173255322116 Sparrow 1 43881U 18111F 24319.26271922 .00022322 00000-0 10746-2 0 9997 2 43881 97.6174 227.0198 0006190 233.6098 126.4565 15.18760459322198 Prox-1 1 44339U 19036A 24319.40771608 .00014805 00000-0 22395-2 0 9995 2 44339 23.9999 335.2433 0008017 234.3883 125.5866 14.72537891287362 SONATE 1 44400U 19038Q 24319.55481837 .00047775 00000-0 93795-3 0 9999 2 44400 97.7133 321.6305 0009578 293.9120 66.1125 15.47131741297215 Taurus 1 1 44530U 19059C 24319.46415691 .00011516 00000-0 23953-2 0 9993 2 44530 98.5885 84.1887 0010321 311.2011 48.8297 14.60184887273651 Duchifat 3 1 44854U 19089C 24319.05297066 .00031478 00000-0 11811-2 0 9993 2 44854 36.9531 213.4839 0012676 281.6036 78.3292 15.26298316271095 TO-108 1 44881U 19093C 24319.52293769 .00002424 00000-0 29233-3 0 9993 2 44881 97.8165 33.3836 0013904 185.3526 174.7542 14.84670610265343 FloripaSat 1 1 44885U 19093G 24319.32711537 .00010075 00000-0 94772-3 0 9994 2 44885 97.8336 41.0287 0011687 172.5609 187.5786 14.94029925265754 RS-44 1 44909U 19096E 24319.61064291 .00000036 00000-0 92471-4 0 9995 2 44909 82.5241 4.8197 0218416 59.7008 302.5505 12.79735893228264 UPMSat 2 1 46276U 20061E 24319.11561015 .00035898 00000-0 77851-3 0 9997 2 46276 97.2785 24.3657 0000733 15.0195 345.1075 15.44320457233228 AmicalSat 1 46287U 20061R 24319.17996180 .00151826 00000-0 15312-2 0 9993 2 46287 97.3255 28.4722 0001169 324.6431 35.4751 15.64882912232755 SALSAT 1 46495U 20068K 24319.47578700 .00011043 00000-0 55502-3 0 9990 2 46495 97.8356 283.1089 0013788 148.7913 211.4141 15.17362899227061 SOMP 2b 1 47445U 21006AJ 24319.15866626 .04921083 23797-5 14538-2 0 9995 2 47445 97.2665 22.7441 0006826 284.5323 75.5213 16.27184491212067 IDEASSat 1 47458U 21006AX 24319.57317453 .00356820 00000-0 17569-2 0 9995 2 47458 97.3015 22.2985 0002425 339.7783 20.3389 15.81205680211955 CubeSX-Sirius-HSE 1 47951U 21022V 24319.56605997 .00054393 00000-0 13859-2 0 9991 2 47951 97.4412 218.5600 0009350 344.0200 16.0749 15.39324844201583 CubeSX-HSE 1 47952U 21022W 24319.63206108 .00052942 00000-0 13360-2 0 9996 2 47952 97.4411 218.7606 0009231 341.9582 18.1334 15.39627686201604 KSU-Cubesat 1 47954U 21022Y 24319.25102300 .00076215 00000-0 14955-2 0 9995 2 47954 97.4412 220.7321 0006755 344.0077 16.0958 15.47046170201415 GRBAlpha 1 47959U 21022AD 24319.58998005 .00052623 00000-0 13279-2 0 9996 2 47959 97.4412 218.8856 0009175 342.3205 17.7720 15.39631256200425 Orbicraft-Zorkiy 1 47960U 21022AE 24319.62382070 .00070566 00000-0 15179-2 0 9999 2 47960 97.4453 220.9573 0007629 345.0189 15.0832 15.44367786201229 TUBIN 1 48900U 21059X 24319.58713818 .00034357 00000-0 85617-3 0 9990 2 48900 97.6607 109.7326 0005555 276.2327 83.8285 15.40140463187980 LEDSAT 1 49069U 21073D 24319.17178877 .00036411 00000-0 10451-2 0 9994 2 49069 97.4209 30.1089 0015955 110.5122 249.7835 15.35641759179370 CUTE 1 49263U 21088D 24319.18589369 .00039922 00000-0 13031-2 0 9996 2 49263 97.4795 25.0795 0010415 273.2772 86.7277 15.31609060172497 TeikyoSat 4 1 49396U 21102B 24319.56768008 .00004012 00000-0 27912-3 0 9997 2 49396 97.4414 359.3344 0014604 118.8632 241.4063 15.05946387165377 Z-Sat 1 49399U 21102E 24319.60432988 .00008223 00000-0 49058-3 0 9993 2 49399 97.4123 1.3877 0020757 99.6125 260.7452 15.11211521165683 KOSEN 1 1 49402U 21102H 24319.62416694 .00011174 00000-0 59154-3 0 9993 2 49402 97.4041 3.4893 0018907 81.6710 278.6666 15.15435500165890 HO-113 1 50466U 21131B 24319.56970605 .00001757 00000-0 56904-3 0 9993 2 50466 98.5225 43.9384 0004801 48.3344 311.8254 14.40250475151647 IRIS-A 1 51044U 22002BN 24319.13817584 .00044098 00000-0 93725-3 0 9990 2 51044 97.3656 26.1133 0004394 211.1027 148.9962 15.44864382157458 Planetum 1 1 52738U 22057G 24319.34775339 .00513506 10168-3 17833-2 0 9994 2 52738 97.5649 94.3059 0008348 298.5408 61.5023 15.89346693137918 Foresail-1 1 52766U 22057AL 24319.36422411 .00046944 00000-0 98620-3 0 9999 2 52766 97.5965 89.7619 0007993 313.8649 46.1938 15.45170530137521 SNUGLITE 2 1 52899U 22065F 24319.35022534 .00002905 00000-0 58807-3 0 9998 2 52899 98.1401 97.8924 0008310 48.7300 311.4616 14.62027406126194 IO-117 1 53106U 22080B 24317.91823954 -.00000003 00000-0 00000-0 0 9999 2 53106 70.1294 140.8531 0008378 74.0630 286.0952 6.42557820 54828 FO-118 1 54684U 22167C 24319.57168244 .00090044 00000-0 15561-2 0 9998 2 54684 97.6149 109.9033 0008678 321.1491 38.9135 15.50618845107415 SSS-2B 1 56184U 23054G 24319.57909782 .00241526 00000-0 16695-2 0 9993 2 56184 97.3416 221.1069 0005412 67.2891 292.8945 15.73816007 89466 SO-120 1 56992U 23084BU 24319.61308448 .00116583 00000-0 19517-2 0 9990 2 56992 97.5372 82.6459 0008480 225.5246 134.5313 15.51417789 79280 MRC-100 1 56993U 23084BV 24319.30636452 .00180326 00000-0 20917-2 0 9998 2 56993 97.5363 83.6939 0007896 237.5620 122.4873 15.61157157 79338 UmKA 1 (RS40S) 1 57172U 23091G 24319.58696249 .00009234 00000-0 55367-3 0 9992 2 57172 97.5922 10.2706 0015050 332.3048 27.7379 15.11089713 76170 CubeBel-2 (EU11S) 1 57175U 23091K 24319.61853299 .00013658 00000-0 77480-3 0 9994 2 57175 97.5926 10.5240 0013547 344.0776 16.0027 15.13004810 76190 VERONIKA 1 58261U 23174F 24319.28708842 .00042304 00000-0 12966-2 0 9996 2 58261 97.4453 33.6394 0009717 73.3931 286.8378 15.33616476 56605 KAFASAT 1 58317U 23174BP 24319.33953304 .00064911 00000-0 15190-2 0 9999 2 58317 97.4383 35.2792 0007572 41.9717 318.2109 15.41876271 56735 ENSO 1 58470U 23185J 24319.55213368 .00035779 00000-0 10974-2 0 9999 2 58470 97.4078 25.4475 0010835 105.5536 254.6903 15.33619343 53094 EIRSAT-1 1 58472U 23185L 24319.54779789 .00041240 00000-0 11877-2 0 9997 2 58472 97.4072 25.7243 0010159 105.4230 254.8136 15.35584725 53115 SONATE-2 1 59112U 24043Q 24319.32647309 .00019817 00000-0 78444-3 0 9990 2 59112 97.4943 82.3099 0013605 127.1007 233.1477 15.25391703 38633 MO-122 1 60209U 24125G 24319.56781886 .00021462 00000-0 84393-3 0 9994 2 60209 97.3009 168.7404 0023867 151.4476 208.8075 15.25411340 20289 GRBBeta 1 60237U 24128C 24319.56661286 .00007571 00000-0 62815-3 0 9999 2 60237 61.9938 79.5768 0026297 3.1305 356.9943 14.99300515 19125 Curium One 1 60242U 24128H 24319.60358265 .00012272 00000-0 99789-3 0 9994 2 60242 61.9842 79.6021 0026520 353.1156 6.9565 14.99650804 19131 ROBUSTA-3A 1 60243U 24128J 24319.55611903 .00011906 00000-0 97718-3 0 9993 2 60243 61.9908 80.0252 0024602 350.2858 9.7752 14.99352393 19123 CatSat 1 60246U 24125J 24319.12945481 .00015032 00000-0 60921-3 0 9997 2 60246 97.2827 169.2211 0050680 109.0996 251.5739 15.23533780 18323 CosmoGirlSat 1 60953U 98067WT 24319.37227712 .00407919 00000-0 20146-2 0 9998 2 60953 51.6247 284.5935 0007844 135.5189 224.6444 15.80364910 12030 Sakura 1 60954U 98067WU 24319.28296114 .00560240 00000-0 19465-2 0 9990 2 60954 51.6236 283.9822 0008489 131.1135 229.0604 15.87402767 12033 CySat-1 1 61501U 98067WZ 24319.23574577 .00152263 00000-0 16337-2 0 9993 2 61501 51.6335 290.4611 0009484 153.6105 206.5374 15.62734867 5772 DORA 1 61502U 98067XA 24319.38860961 .00630793 00000-0 34618-2 0 9996 2 61502 51.6271 288.4697 0012899 136.6096 223.5922 15.77378641 5809 /EX
